Flag for South Africa Weather past 2 weeks in Rustenburg, South Africa

Now
54 °F

Cool.


Feels Like: 52 °F
Forecast: 45 / 73 °F
Wind: 6 mph from Southeast

Location: Lanseria Civ / Mil

Current Time: May 23, 2015 at 12:15:06 AM

Latest Report: May 23, 2015 at 12:00 AM


Visibility: N/A

Pressure: 30.48 "Hg

Humidity: 72%

Dew point: 45 °F

Location of RustenburgLocation

Historic Weather in Rustenburg — Graph

°F

Rustenburg temperature yesterday

Maximum temperature yesterday: 77 °F (at 2:00 PM)
Minimum temperature yesterday: 48 °F (at 4:00 AM)
Average temperature yesterday: 61 °F

Past Weeks' High & Low Weather Summary

 TemperatureHumidityPressure
High82 °F (May 14, 2:00 PM)100% (May 8, 4:00 AM)30.54 "Hg (May 8, 4:00 AM)
Low43 °F (May 14, 6:00 AM)7% (May 14, 4:00 PM)30.12 "Hg (May 13, 3:00 PM)
Average62 °F49%30.33 "Hg
* Reported May 7 10:00 PM — May 22 10:00 PM, Rustenburg, Weather by CustomWeather, © 2015

Note: Actual official high and low records may vary slightly from our data, if they occured in-between our weather recording intervals... More about our weather records

Advertising

Rustenburg weather history for previous 24 hours

 ConditionsComfort  
Time TempWeatherWind HumidityBarometerVisibility
10:00 PM
Fri, May 22
59 °FClear.13 mph59%30.48 "Hg10 mi
9:00 PM59 °FClear.10 mph59%30.48 "Hg10 mi
8:00 PM61 °FClear.9 mph55%30.48 "Hg10 mi
7:00 PM64 °FClear.9 mph46%30.45 "Hg6 mi
6:00 PM66 °FClear.8 mph37%30.42 "Hg6 mi
5:00 PM72 °FClear.10 mph31%30.42 "Hg6 mi
4:00 PM75 °FClear.10 mph27%30.42 "Hg6 mi
3:00 PM75 °FClear.12 mph27%30.42 "Hg6 mi
2:00 PM77 °FClear.15 mph24%30.42 "Hg6 mi
1:00 PM75 °FClear.15 mph25%30.42 "Hg6 mi
12:00 PM75 °FClear.16 mph22%30.48 "Hg6 mi
11:00 AM73 °FClear.16 mph25%30.48 "Hg5 mi
10:00 AM68 °FClear.2 mph35%30.51 "Hg5 mi
9:00 AM59 °FClear.3 mph45%30.51 "Hg5 mi
8:53 AM59 °FClear.3 mph45%30.51 "Hg5 mi
8:00 AM50 °FClear.No wind67%30.48 "Hg5 mi
7:00 AM48 °FClear.2 mph62%30.45 "Hg5 mi
6:00 AM50 °FSunny.No wind62%30.45 "Hg10 mi
5:00 AM48 °FClear.No wind66%30.45 "Hg10 mi
4:00 AM48 °FCool.3 mph62%30.45 "HgN/A
3:00 AM52 °FCool.1 mph62%30.45 "HgN/A
2:00 AM52 °FCool.No wind58%30.45 "HgN/A
1:00 AM52 °FCool.1 mph62%30.45 "HgN/A
12:00 AM54 °FCool.3 mph58%30.45 "HgN/A
Weather by CustomWeather, © 2015

See weather overviewHow to use our weather pages